Eilat, Israel

1:59 PM IST on December 13, 2017 (GMT +0200)
Eilat

Weather History for LLET - September, 2013

Change the Weather History Date:

Sunday, September 8, 2013

  Actual Average Record
Temperature  
Mean Temperature 88 °F -  
Max Temperature 98 °F 95 °F 109 °F (1998)
Min Temperature 79 °F 74 °F 37 °F (1999)
Cooling Degree Days 24    
Growing Degree Days 38 (Base 50)    
Moisture  
Dew Point 55 °F    
Average Humidity 33    
Maximum Humidity 61    
Minimum Humidity 14    
Precipitation  
Precipitation 0.00 in -9.62 in - ()
Sea Level Pressure  
Sea Level Pressure 29.84 in    
Wind  
Wind Speed 11 mph ()    
Max Wind Speed 20 mph    
Max Gust Speed -    
Visibility 13.7 miles    
Events      
Averages and records for this station are not official NWS values.
T = Trace of Precipitation, MM = Missing Value Source: Averaged Metar Reports

Daily Weather History Graph

Daily Weather History Graph

Search for Another Location

Airport or City:

Trip Planner

Search our weather history database for the weather conditions in past years. The results will help you decide how hot, cold, wet, or windy it might be!

Date:

Astronomy

Sep. 08, 2013 Rise Set
Actual Time 6:21 AM IDT 6:54 PM IDT
Civil Twilight 5:57 AM IDT 7:18 PM IDT
Nautical Twilight 5:28 AM IDT 7:46 PM IDT
Astronomical Twilight 5:00 AM IDT 8:14 PM IDT
Moon 8:59 AM IDT (9/8) 8:35 PM IDT (9/8)
Length of Visible Light 13h 20m
Length of Day
12h 32m
Waxing Crescent, 9% of the Moon is Illuminated
Sep 8
Waxing Crescent
Sep 12
First Quarter
Sep 19
Full
Sep 27
Last Quarter
Oct 5
New

Hourly Weather History & Observations

Time (IDT) Temp. Heat Index Dew Point Humidity Pressure Visibility Wind Dir Wind Speed Gust Speed Precip Events Conditions
5:37 AM 84.2 °F 85.0 °F 62.6 °F 48% 29.89 in - North 6.9 mph - N/A   Clear
5:50 AM 80.6 °F 81.8 °F 62.6 °F 54% 29.89 in - North 5.8 mph - N/A   Clear
6:50 AM 78.8 °F - 64.4 °F 61% 29.89 in - North 8.1 mph - N/A   Clear
7:50 AM 80.6 °F 82.3 °F 64.4 °F 58% 29.92 in - NE 8.1 mph - N/A   Clear
8:50 AM 82.4 °F 83.9 °F 64.4 °F 54% 29.92 in - NE 13.8 mph - N/A   Clear
9:00 AM 84 °F - 63 °F 39% 29.91 in 16 mi NNE 6.9 mph - -  
9:50 AM 84.2 °F 85.0 °F 62.6 °F 48% 29.92 in - NE 16.1 mph - N/A   Clear
10:50 AM 86.0 °F 86.6 °F 62.6 °F 45% 29.89 in - NE 16.1 mph - N/A   Clear
11:50 AM 89.6 °F 89.5 °F 60.8 °F 38% 29.86 in - NE 16.1 mph - N/A   Clear
12:50 PM 91.4 °F 90.7 °F 59.0 °F 34% 29.86 in - NE 17.3 mph - N/A   Clear
1:50 PM 95.0 °F 93.7 °F 57.2 °F 28% 29.83 in - NE 17.3 mph - N/A   Clear
2:50 PM 96.8 °F 94.4 °F 53.6 °F 23% 29.80 in - NE 18.4 mph - N/A   Clear
3:00 PM 98 °F - 53 °F 14% 29.78 in 16 mi NE 8.1 mph - -  
3:50 PM 98.6 °F - 50.0 °F 19% 29.77 in - NE 19.6 mph - N/A   Clear
4:50 PM 98.6 °F - 48.2 °F 18% 29.77 in - NE 19.6 mph - N/A   Clear
5:50 PM 96.8 °F - 48.2 °F 19% 29.77 in - NE 19.6 mph - N/A   Clear
6:50 PM 95.0 °F - 50.0 °F 22% 29.77 in - NNE 19.6 mph - N/A   Clear
7:50 PM 93.2 °F - 50.0 °F 23% 29.80 in - NNE 13.8 mph - N/A   Clear
8:50 PM 91.4 °F 89.1 °F 53.6 °F 28% 29.83 in - North 15.0 mph - N/A   Clear
9:00 PM 90 °F - 51 °F 17% 29.81 in 9 mi NNW 9.2 mph - -  
9:50 PM 89.6 °F - 48.2 °F 24% 29.83 in - North 13.8 mph - N/A   Clear
10:50 PM 87.8 °F - 39.2 °F 18% 29.86 in - North 11.5 mph - N/A   Clear
11:50 PM 86.0 °F - 41.0 °F 20% 29.86 in - North 9.2 mph - N/A   Clear